Location: Ciez
(47.4414°N, 3.1629°E)
Time: 13:36:17
(UTC+00:00)

Daily predictions for brighter satellites

Satellite Brightness Start Highest point End
(mag) Time Altitude Azimuth Time Altitude Azimuth Time Altitude Azimuth
STARLINK-1212 2.8 18:41:42 10° WSW 18:44:48 82° SSE 18:47:57 10° ENE
STARLINK-1105 2.8 18:42:07 10° WSW 18:45:14 82° SSE 18:48:24 10° ENE
STARLINK-1206 2.8 18:42:36 10° WSW 18:45:43 83° SSE 18:48:51 10° ENE
STARLINK-1247 2.8 18:43:03 10° WSW 18:46:10 83° SSE 18:49:17 10° ENE
FREGAT/IRIS 3.4 18:43:51 10° SE 18:46:13 27° ENE 18:48:37 10° N
STARLINK-1243 3.7 18:42:33 10° SW 18:46:32 55° SE 18:50:31 10° ENE
STARLINK-1227 2.8 18:43:28 10° WSW 18:46:35 84° SSE 18:49:45 10° ENE
STARLINK-1218 2.8 18:43:57 10° WSW 18:47:04 85° SE 18:50:12 10° ENE
Cosmos 1302 Rocket 4.5 18:42:02 10° NNW 18:47:05 44° ENE 18:52:07 10° SE
Abrixas rocket 4.1 18:46:15 10° SSE 18:47:26 12° SE 18:48:39 10° ESE
STARLINK-1226 2.8 18:44:23 10° WSW 18:47:31 85° SSE 18:50:39 10° ENE
STARLINK-1079 3.6 18:43:41 10° WNW 18:47:44 87° SSW 18:51:47 10° ESE
STARLINK-1254 2.8 18:44:49 10° WSW 18:47:57 86° SSE 18:51:06 10° ENE
STARLINK-1103 4.3 18:44:25 10° WNW 18:48:24 45° NNE 18:52:24 10° E
STARLINK-1215 2.8 18:45:18 10° WSW 18:48:25 87° SSE 18:51:33 10° ENE
STARLINK-1231 2.8 18:45:45 10° WSW 18:48:51 87° SSE 18:51:59 10° ENE
STARLINK-1232 2.8 18:46:39 10° WSW 18:49:46 88° SSE 18:52:54 10° ENE
Cosmos 304 Rocket 3.8 18:45:03 10° NNW 18:49:53 81° ENE 18:54:40 10° SSE
STARLINK-1217 2.8 18:47:06 10° WSW 18:50:13 89° SSE 18:53:21 10° ENE
Cosmos 1709 Rocket 4.2 18:44:26 10° N 18:50:28 50° ENE 18:56:24 10° SSE
Cosmos 1953 4.2 18:48:56 10° ESE 18:50:37 12° E 18:52:20 10° ENE
STARLINK-1208 2.9 18:47:31 10° WSW 18:50:39 90° SSE 18:53:48 10° ENE
STARLINK-1229 2.8 18:48:00 10° WSW 18:51:07 90° NW 18:54:14 10° ENE
STARLINK-1236 3.7 18:47:17 10° SW 18:51:17 59° SE 18:55:19 10° ENE
SeaSat 1 3.4 18:46:34 10° NNE 18:51:23 53° NW 18:56:10 10° SW
STARLINK-1271 2.9 18:48:26 10° WSW 18:51:34 89° NNW 18:54:42 10° ENE
STARLINK-1270 2.9 18:48:55 10° WSW 18:52:01 89° NW 18:55:09 10° ENE
STARLINK-1116 3.6 18:48:06 10° WNW 18:52:09 83° SSW 18:56:12 10° ESE
STARLINK-1154 2.9 18:49:21 10° WSW 18:52:29 88° NNW 18:55:37 10° ENE
STARLINK-1197 2.9 18:50:16 10° WSW 18:53:23 87° NNW 18:56:31 10° ENE
STARLINK-1101 4.3 18:49:24 10° WNW 18:53:24 46° NNE 18:57:25 10° E
STARLINK-1189 2.9 18:50:43 10° WSW 18:53:50 86° NNW 18:56:58 10° ENE
Cosmos 1269 Rocket 4.2 18:48:51 10° S 18:53:57 51° ESE 18:59:05 10° NNE
STARLINK-1187 3.0 18:51:33 10° WSW 18:54:41 77° NNW 18:57:50 10° ENE
STARLINK-1198 2.9 18:51:37 10° WSW 18:54:44 85° NNW 18:57:52 10° ENE
STARLINK-1188 2.9 18:51:37 10° WSW 18:54:44 85° NNW 18:57:52 10° ENE
SL-08 ROCKET BODY 4.4 18:49:11 10° N 18:55:22 84° E 19:01:24 10° S
STARLINK-1235 3.1 18:52:16 10° WSW 18:55:24 70° NNW 18:58:33 10° ENE
CZ-4C R/B 4.3 18:50:57 10° WNW 18:55:34 26° NNW 19:00:55 10° NNE
STARLINK-1199 2.9 18:53:33 10° WSW 18:56:41 82° NNW 18:59:50 10° ENE
STARLINK-1191 2.9 18:54:00 10° WSW 18:57:08 82° NNW 19:00:17 10° ENE
STARLINK-1210 2.9 18:54:27 10° WSW 18:57:36 81° NNW 19:00:45 10° ENE
STARLINK-1221 2.9 18:54:54 10° WSW 18:58:02 81° NNW 19:01:11 10° ENE
STARLINK-1102 4.2 18:54:23 10° WNW 18:58:24 48° NNE 19:02:19 11° E
STARLINK-1219 3.0 18:55:22 10° WSW 18:58:30 80° NNW 19:01:39 10° ENE
STARLINK-1222 3.0 18:55:49 10° WSW 18:58:56 80° NNW 19:02:06 10° ENE
STARLINK-1211 3.0 18:56:16 10° WSW 18:59:23 79° NNW 19:02:33 10° ENE
ISS -2.9 18:56:17 10° WNW 18:59:30 42° N 19:02:41 10° E
YAOGAN 1 4.3 18:55:35 10° SSW 18:59:34 36° W 19:03:36 10° NNW
STARLINK-1214 3.0 18:56:43 10° WSW 18:59:51 78° NNW 19:03:00 10° ENE
STARLINK-1245 3.0 18:57:11 10° WSW 19:00:18 78° NNW 19:03:26 10° ENE
STARLINK-1238 3.0 18:57:35 10° WSW 19:00:43 77° NNW 19:03:53 10° ENE
STARLINK-1269 3.6 18:57:03 10° SW 19:01:06 68° SSE 19:05:10 10° ENE
STARLINK-1094 3.7 18:57:22 10° WNW 19:01:25 73° SSW 19:05:21 11° SE
Cosmos 2297 3.7 18:55:50 10° NNW 19:01:32 72° ENE 19:07:13 10° SE
STARLINK-1205 3.0 18:58:30 10° WSW 19:01:37 76° NNW 19:04:45 10° ENE
Cosmos 1455 Rocket 3.0 18:57:33 10° S 19:01:52 71° E 19:06:13 10° NNE
BREEZE-M DEB (TANK) 4.4 18:52:17 10° W 19:02:02 69° N 19:05:19 10° E
STARLINK-1204 3.0 18:58:59 10° WSW 19:02:06 76° NNW 19:05:13 10° ENE
STARLINK-1111 4.2 18:59:22 10° WNW 19:03:24 49° NNE 19:07:06 12° E
S3M 4.2 18:59:24 10° S 19:05:48 84° W 19:12:15 10° N
STARLINK-1200 3.5 19:01:51 10° SW 19:05:54 73° SSE 19:09:59 10° ENE
STARLINK-1117 3.8 19:02:13 10° WNW 19:06:15 68° SSW 19:10:00 12° SE
Cosmos 2237 Rocket 2.8 19:00:50 10° SW 19:06:25 64° WNW 19:12:03 10° NNE
STARLINK-1073 4.1 19:04:22 10° WNW 19:08:26 51° NNE 19:11:53 14° E
Cosmos 1892 Rocket 4.1 19:04:08 10° NNW 19:08:35 63° W 19:13:00 10° S
CZ-2C R/B 3.7 19:05:08 10° NE 19:09:04 21° E 19:12:56 10° SE
Cosmos 1626 Rocket 3.8 19:05:06 10° N 19:09:23 47° ENE 19:13:35 10° SSE
Cosmos 1805 4.1 19:06:15 10° SSW 19:10:06 55° WNW 19:13:58 10° N
STARLINK-1192 3.5 19:06:35 10° SW 19:10:40 78° SSE 19:14:45 10° ENE
STARLINK-1078 3.8 19:06:40 10° WNW 19:10:42 64° SSW 19:14:17 13° SE
BREEZE-M DEB (TANK) 4.5 18:59:51 10° WNW 19:12:00 43° SW 19:15:26 10° SSE
Cosmos 2278 Rocket 4.1 19:07:20 10° NW 19:12:17 32° WSW 19:17:13 10° SSW
Meteor 2-5 Rocket 4.4 19:07:22 10° NNW 19:12:56 58° W 19:18:21 10° S
STARLINK-1121 4.0 19:09:20 10° WNW 19:13:24 53° NNE 19:16:39 15° E
STARLINK-1108 3.9 19:11:33 10° WNW 19:15:33 59° SW 19:18:58 14° SE
STARLINK-1244 3.5 19:11:30 10° WSW 19:15:34 83° SSE 19:19:40 10° ENE
ARGOS 3.1 19:10:36 10° SSE 19:15:59 74° ENE 19:21:23 10° N
Cosmos 1602 Rocket 3.9 19:13:04 10° N 19:17:24 45° ENE 19:21:38 10° SSE
STARLINK-1106 4.0 19:14:17 10° WNW 19:18:23 56° NNE 19:21:25 17° E
STARLINK-1138 3.5 19:16:04 10° WSW 19:20:10 88° SSE 19:24:17 10° ENE
STARLINK-1071 4.0 19:16:12 10° WNW 19:20:12 55° SW 19:23:26 15° SE
Okean 1-7 Rocket 4.4 19:16:17 10° NNW 19:20:36 55° W 19:24:53 10° S
STARLINK-1234 3.7 19:18:19 10° W 19:21:12 45° NNW 19:24:03 10° NE
Cosmos 494 Rocket 4.4 19:17:12 10° SSW 19:22:20 69° WNW 19:27:33 10° NNE
USA 186 1.9 19:19:47 10° S 19:23:14 82° WSW 19:26:37 10° NNW
STARLINK-1112 3.9 19:19:18 10° WNW 19:23:24 58° NNE 19:26:14 19° E
MOS 1 Rocket 4.4 19:18:57 10° NNE 19:23:33 30° E 19:28:13 10° SSE
Meteor 1-24 Rocket 4.2 19:18:45 10° NNW 19:24:13 62° W 19:29:29 10° S
STARLINK-1110 4.2 19:20:41 10° WNW 19:24:38 51° SW 19:27:43 16° SE
STARLINK-1143 3.6 19:20:59 10° WSW 19:25:05 87° NNW 19:29:11 10° ENE
STARLINK-1124 4.2 19:22:04 10° WNW 19:26:06 51° SW 19:29:13 16° SE
MetOp-A 4.3 19:21:31 10° SE 19:26:43 53° ENE 19:31:55 10° N
STARLINK-1128 3.8 19:24:16 10° WNW 19:28:24 61° NNE 19:31:01 21° E
CZ-2C R/B 3.0 19:23:20 10° SSE 19:28:24 84° WSW 19:33:17 10° NNW
Cosmos 1544 Rocket 3.7 19:25:03 10° SSW 19:29:26 80° W 19:33:55 10° N
Cosmos 1470 2.6 19:27:37 10° S 19:31:28 68° E 19:35:21 10° NNE
Cosmos 1437 4.4 19:29:26 10° NNE 19:31:24 17° ENE 19:31:24 17° ENE
STARLINK-1113 3.8 19:29:15 10° WNW 19:33:23 64° NNE 19:35:47 23° E
STARLINK-1241 3.6 19:29:21 10° WSW 19:33:24 79° NNW 19:37:12 12° ENE
STARLINK-1122 4.4 19:30:10 10° WNW 19:34:03 44° SW 19:36:48 17° SSE
SPOT 3 Rocket 3.6 19:29:58 10° SSE 19:35:08 67° ENE 19:40:20 10° N
Cosmos 1825 Rocket 4.5 19:32:27 10° N 19:36:22 29° ENE 19:37:53 24° ESE
IRIDIUM 103 4.5 19:32:09 10° N 19:37:16 54° E 19:42:00 12° SSE
STARLINK-1239 3.7 19:34:17 10° WSW 19:38:19 75° NNW 19:41:56 13° ENE
STARLINK-1119 3.7 19:34:13 10° WNW 19:38:22 68° NNE 19:40:34 26° E
Cosmos 2369 Rocket 2.5 19:34:20 10° NNW 19:39:53 49° NE 19:43:14 23° ESE
SJ-6B 3.1 19:37:15 10° S 19:41:19 72° WSW 19:45:27 10° NNW
STARLINK-1240 3.8 19:39:01 10° WSW 19:43:04 71° NNW 19:46:29 14° ENE
Cosmos 1726 2.9 19:42:56 29° ESE 19:43:17 30° E 19:46:34 10° NNE
STARLINK-1114 3.7 19:39:14 10° WNW 19:43:23 72° NNE 19:45:24 29° ESE
Ariane Rocket 4.1 19:39:34 10° S 19:44:25 45° W 19:49:19 10° NNW
Aureole 2 Rocket 2.9 19:41:44 10° N 19:45:06 41° ENE 19:45:56 34° E
Cosmos 1758 3.3 19:41:20 10° S 19:45:26 89° E 19:49:33 10° N
Cosmos 1758 Rocket 4.0 19:42:04 10° N 19:46:14 42° ENE 19:47:54 29° SE
STARLINK-1216 3.8 19:43:46 10° WSW 19:47:48 67° NNW 19:51:02 15° ENE
NOSS 3-3 (A) 4.4 19:42:59 10° S 19:48:12 35° ESE 19:53:58 10° NE
NOSS 3-3 (C) 4.4 19:43:06 10° S 19:48:18 35° ESE 19:54:04 10° NE
STARLINK-1130 (DARKSAT) 3.6 19:44:12 10° WNW 19:48:21 76° NNE 19:50:10 33° ESE
CZ-2C R/B 3.7 19:44:35 10° NNE 19:49:23 75° ESE 19:54:04 10° S
STARLINK-1209 4.3 19:48:33 10° W 19:51:16 32° NNW 19:52:50 19° NE
STARLINK-1237 3.9 19:48:34 10° WSW 19:52:36 64° NNW 19:55:38 17° ENE
Cosmos 1953 Rocket 4.5 19:48:44 10° N 19:52:40 30° ENE 19:53:22 28° E
STARLINK-1084 3.6 19:49:10 10° WNW 19:53:19 80° NNE 19:54:56 36° ESE
STARLINK-1228 4.3 19:50:47 10° W 19:53:25 31° NNW 19:54:50 20° NE
Terra 3.9 19:53:53 11° ENE 19:54:19 11° NE 19:55:51 10° NE
Cosmos 2184 Rocket 4.1 19:49:07 10° N 19:55:23 60° ENE 19:59:37 21° SSE
IRIDIUM 106 4.2 19:50:21 10° N 19:55:37 77° E 20:00:12 13° S
STARLINK-1202 4.0 19:53:19 10° WSW 19:57:20 61° NNW 20:00:11 18° NE
Spot 2 Rocket 4.2 19:55:41 29° ESE 19:57:21 36° ENE 20:02:00 10° N
STARLINK-1098 3.5 19:54:10 10° WNW 19:58:20 85° NNE 19:59:43 41° ESE
Cosmos 1606 Rocket 4.1 19:59:07 35° ESE 19:59:29 35° E 20:03:32 10° NNE
Cosmos 1943 Rocket 2.1 19:55:49 10° NNW 20:01:23 87° ENE 20:04:35 27° SSE
Meteor 1-21 Rocket 4.1 19:56:19 10° N 20:01:56 87° E 20:06:08 18° SSE
STARLINK-1123 3.5 19:59:08 10° WNW 20:03:18 89° NNW 20:04:30 45° ESE
Cosmos 1943 3.7 20:01:04 24° SSE 20:03:33 36° ESE 20:08:41 10° NE
STARLINK-1246 4.1 20:00:33 10° W 20:04:36 57° NNW 20:07:11 21° NE
STARLINK-67 4.4 20:02:34 10° WNW 20:04:46 24° N 20:05:16 22° NNE
SL-8 R/B 3.6 20:00:58 10° W 20:05:46 86° N 20:07:35 38° E
Meteor 2-10 4.1 20:00:44 11° S 20:05:50 60° E 20:11:18 10° NNE
STARLINK-1201 4.3 20:04:16 10° W 20:07:20 37° NNW 20:08:41 25° NE
STARLINK-1097 3.5 20:04:06 10° WNW 20:08:16 85° SSW 20:09:16 51° SE
Resurs 1-3 3.7 20:05:31 22° S 20:08:18 76° WSW 20:12:43 10° NNW
Cosmos 1626 4.4 20:05:41 10° NW 20:08:43 24° W 20:11:43 10° SW
ATLAS 2AS CENTAUR R/B 3.5 20:03:21 10° NW 20:10:45 45° NE 20:14:22 27° E
STARLINK-1224 4.2 20:07:43 10° W 20:11:43 53° NNW 20:13:58 24° NE
STARLINK-1203 4.3 20:09:09 10° W 20:13:02 50° NNW 20:15:06 24° NE
STARLINK-1099 3.5 20:09:06 10° WNW 20:13:15 80° SSW 20:14:04 56° SE
H-2A R/B 3.8 20:10:28 10° SSW 20:15:09 31° W 20:19:45 10° NNW
USA 234 3.2 20:09:36 10° NE 20:16:11 84° SE 20:22:44 10° SW
STARLINK-1225 4.3 20:12:20 10° W 20:16:19 51° NNW 20:18:23 25° NE
Cosmos 2154 Rocket 4.1 20:10:13 10° N 20:16:29 57° ENE 20:18:59 35° SE
USA 245 4.4 20:15:17 40° ESE 20:16:32 48° ENE 20:22:09 10° N
Aureole 3 4.0 20:13:20 10° SSW 20:17:21 67° WNW 20:22:34 10° N
Resurs 01 Rocket 1.6 20:16:28 37° S 20:18:13 85° WSW 20:22:39 10° NNW
STARLINK-1104 3.5 20:14:05 10° WNW 20:18:14 75° SSW 20:18:51 61° SSE
DMSP B5D2-2 4.0 20:13:40 10° NNE 20:18:55 86° WNW 20:24:08 10° SSW
STARLINK-1233 4.4 20:17:31 10° WNW 20:20:24 32° N 20:21:02 29° NNE
Cosmos 1328 3.9 20:16:35 10° N 20:20:25 54° ENE 20:20:25 54° ENE
STARLINK-1212 4.4 20:18:00 10° WNW 20:20:52 32° N 20:21:27 29° NNE
SL-16 R/B 3.3 20:15:37 10° SW 20:21:02 46° NW 20:26:30 10° NNE
STARLINK-1230 4.4 20:17:08 10° W 20:21:06 49° NNW 20:22:57 27° NE
STARLINK-1105 4.4 20:18:26 10° WNW 20:21:18 32° N 20:21:53 29° NNE
STARLINK-1206 4.4 20:18:56 10° WNW 20:21:47 31° N 20:22:19 29° NNE
STARLINK-1247 4.4 20:19:23 10° WNW 20:22:13 31° N 20:22:44 29° N
Cosmos 2228 3.0 20:22:39 57° E 20:22:39 57° E 20:26:48 10° NNE
Abrixas rocket 4.1 20:19:40 10° WSW 20:20:46 20° SW 20:20:46 20° SW
STARLINK-1227 4.4 20:19:48 10° WNW 20:22:40 31° N 20:23:12 29° NNE
STARLINK-1218 4.4 20:20:17 10° WNW 20:23:08 31° N 20:23:36 29° N
STARLINK-1144 3.6 20:19:05 10° WNW 20:23:13 70° SSW 20:23:38 63° S
STARLINK-1226 4.4 20:20:44 10° WNW 20:23:35 31° N 20:24:02 30° N
STARLINK-1254 4.4 20:21:10 10° WNW 20:24:02 31° N 20:24:30 30° N
STARLINK-1215 4.4 20:21:39 10° WNW 20:24:30 31° N 20:24:54 30° N
STARLINK-1231 4.4 20:22:06 10° WNW 20:24:56 31° N 20:25:19 30° N
STARLINK-1232 4.4 20:23:01 10° WNW 20:25:51 31° N 20:26:12 30° N
STARLINK-1243 4.4 20:21:59 10° W 20:25:56 47° NNW 20:27:36 30° NE
STARLINK-1217 4.4 20:23:28 10° WNW 20:26:18 31° N 20:26:38 30° N
Cosmos 1953 2.8 20:23:07 13° SSW 20:26:29 58° WNW 20:30:26 10° N
STARLINK-1208 4.4 20:23:53 10° WNW 20:26:44 31° N 20:27:05 30° N
STARLINK-1229 4.4 20:24:22 10° WNW 20:27:12 31° N 20:27:30 30° N
STARLINK-1271 4.4 20:24:49 10° WNW 20:27:39 30° N 20:27:56 30° N
STARLINK-1270 4.5 20:25:18 10° WNW 20:28:07 30° N 20:28:22 30° N
STARLINK-1103 3.6 20:24:03 10° WNW 20:28:10 65° SSW 20:28:25 63° S
STARLINK-1154 4.5 20:25:45 10° WNW 20:28:34 30° N 20:28:48 30° N
STARLINK-1197 4.5 20:26:39 10° WNW 20:29:29 30° N 20:29:40 30° N
STARLINK-1189 4.5 20:27:07 10° WNW 20:29:56 30° N 20:30:06 30° N
STARLINK-1236 4.5 20:26:49 10° W 20:30:45 46° NNW 20:32:12 32° NE
Cosmos 1992 Rocket 4.2 20:25:54 10° NNW 20:31:05 67° WSW 20:33:07 37° S
STARLINK-1101 3.8 20:29:02 10° WNW 20:33:08 61° SW 20:33:11 61° SSW
Nadezhda 1 Rocket 3.9 20:29:47 27° S 20:33:24 71° E 20:39:46 10° NNE
ISS -2.8 20:33:08 10° WNW 20:35:39 46° W 20:35:39 46° W
STARLINK-1102 3.9 20:34:01 10° WNW 20:37:58 56° SW 20:37:58 56° SW
Cosmos 2058 Rocket 4.0 20:42:37 36° NE 20:42:37 36° NE 20:45:36 10° NNE
MetOp-B 4.1 20:40:10 50° SSE 20:41:40 87° WSW 20:47:04 10° NNW
Cosmos 1603 3.5 20:37:00 10° SSW 20:42:39 87° ESE 20:48:18 10° NNE
Cosmos 2084 Rocket 4.2 20:38:43 10° NW 20:42:59 45° WSW 20:43:30 43° SW
STARLINK-1111 4.1 20:39:01 10° WNW 20:42:45 51° SW 20:42:45 51° SW
SPOT 5 3.8 20:44:26 31° NE 20:44:26 31° NE 20:47:28 10° N
Cosmos 2251 Rocket 3.8 20:38:15 10° SSW 20:43:36 68° WNW 20:48:59 10° NNE
Meteor 1-16 Rocket 4.2 20:40:19 21° SSW 20:44:00 78° WNW 20:49:31 10° N
Cosmos 1703 3.4 20:40:10 10° NNW 20:43:49 72° NW 20:43:49 72° NW
STARLINK-1073 4.3 20:44:01 10° WNW 20:47:33 45° WSW 20:47:33 45° WSW
IGS 5A 3.9 20:49:02 53° NNE 20:49:02 53° NNE 20:52:23 10° N
ERS-1 Rocket 3.3 20:48:38 50° ENE 20:48:38 50° ENE 20:53:16 10° N
Landsat 7 3.7 20:49:40 72° ENE 20:49:40 72° ENE 20:54:20 10° N
CZ-2C R/B 3.1 20:44:39 10° N 20:49:44 56° WNW 20:54:46 10° SSW
Cosmos 1656 Rocket 3.5 20:55:51 10° NNW 21:01:35 86° WSW 21:02:03 76° S
Meteor 1-11 4.3 20:57:41 10° NNW 21:03:30 77° W 21:04:29 61° SSW
Aureole 1 Rocket 4.2 21:01:50 44° S 21:04:21 68° ESE 21:10:55 10° NNE
Cosmos 1726 Rocket 4.2 21:10:43 53° WNW 21:10:43 53° WNW 21:14:59 10° N
COSMOS 2455 3.3 21:09:11 10° NNW 21:15:00 47° NE 21:15:09 47° NE
Cosmos 1461 4.4 21:17:51 10° NNW 21:20:56 35° N 21:20:56 35° N
Cosmos 2341 Rocket 3.9 21:15:47 10° N 21:22:10 86° W 21:22:43 76° S
Cosmos 2369 Rocket 3.6 21:18:48 10° NW 21:23:40 30° WSW 21:25:03 27° SW
NOSS 3-4 (A) 3.7 21:22:26 10° NW 21:29:26 88° NE 21:30:09 75° SE
NOSS 3-4 (C) 3.7 21:22:31 10° NW 21:29:31 88° NE 21:30:14 75° SE
Terra 2.8 21:32:46 43° N 21:32:46 43° N 21:36:00 10° N
SPOT 1/Viking Rocket 4.3 21:41:28 46° W 21:41:28 46° W 21:46:10 10° NNW
Cosmos 1943 Rocket 4.4 21:41:15 10° WNW 21:44:20 15° W 21:46:08 13° WSW
Cosmos 1943 4.3 21:42:19 11° SW 21:47:31 42° NW 21:52:56 10° NNE
Cosmos 2218 Rocket 4.0 21:43:03 10° N 21:48:36 73° NNW 21:48:36 73° NNW
USA 234 4.1 21:52:44 10° NE 21:58:57 48° NNW 22:05:09 10° W
Cosmos 2181 Rocket 4.2 22:00:16 67° NW 22:00:16 67° NW 22:06:03 10° N
ATLAS 2AS CENTAUR R/B 3.0 21:54:38 10° NW 22:01:48 59° WSW 22:01:48 59° WSW
Cosmos 1697 Rocket 4.3 22:06:19 10° N 22:10:12 26° NNE 22:10:12 26° NNE
Mayak 1.6 22:14:57 10° NNE 22:15:31 14° N 22:15:31 14° N
Cosmos 1980 Rocket 4.0 22:31:56 10° N 22:35:28 24° NNE 22:35:28 24° NNE
CZ-4C R/B 4.0 22:31:02 10° NNW 22:37:05 33° NNE 22:38:44 30° NE
ATLAS 5 CENTAUR R/B 4.5 23:20:05 14° NNE 23:20:05 14° NNE 23:20:52 10° NNE
USA 234 4.4 23:35:15 10° ENE 23:41:11 39° N 23:47:08 10° WNW
SL-16 R/B 4.3 23:52:44 23° ENE 23:52:59 23° NE 23:57:42 10° N
